Regional Weather Roundup
Issued by NWS

Home | Current Version | Previous Version | Text Only | Print | Product List | Glossary Off
Versions: 1 2 3 4 5 6 7 8 9 10 11 12 13 14 15 16 17 18 19 20 21 22 23 24 25 26 27 28 29 30 31 32 33 34 35 36 37 38 39 40 41 42 43 44 45 46 47 48 49 50

000
ASUS45 KBOU 021507
RWRCO

WEATHER ROUNDUP FOR COLORADO
NATIONAL WEATHER SERVICE DENVER/BOULDER CO
800 AM MST MON MAR 02 2015

NOTE: "FAIR" INDICATES FEW OR NO CLOUDS BELOW 12000 FEET WITH NO
SIGNIFICANT WEATHER AND/OR OBSTRUCTIONS TO VISIBILITY.

COZ001>005-013-030-031-021600-
...NORTHWEST COLORADO...

CITY           SKY/WX    TMP DP  RH WIND       PRES   REMARKS
CRAIG            N/A    N/A N/A N/A MISG      29.83F
HAYDEN         CLOUDY    30  27  86 SE8       29.84F VSB 1   WCI  23
MEEKER         FRZ RAIN  32  31  96 CALM      29.82S FOG
MOUNT WERNER   NOT AVBL
STEAMBOAT SPGS CLOUDY    28  27  95 CALM      29.85F
WALDEN         CLOUDY    30  28  93 SE5       29.85F VSB 1   WCI  25
$$

COZ006>008-011-021600-
...WEST CENTRAL VALLEYS...

CITY           SKY/WX    TMP DP  RH WIND       PRES   REMARKS
GRAND JUNCTION CLOUDY    35  35 100 NW8       29.84R WCI  29
MONTROSE       CLOUDY    40  30  67 E7        29.89S
EAGLE          LGT SNOW  30  30 100 CALM      29.92S FOG
RIFLE          LGT RAIN  33  32  96 CALM      29.86S FOG
DELTA          CLOUDY    38  37  96 NE3       29.88S
NUCLA          CLOUDY    45  32  61 S17G31    29.90F
$$

COZ017>023-064>068-021600-
...SOUTHWEST COLORADO...

CITY           SKY/WX    TMP DP  RH WIND       PRES   REMARKS
DURANGO        CLOUDY    34  33  96 NE7       30.00S WCI  28
CORTEZ         CLOUDY    43  35  73 S9        29.93F
PAGOSA SPRINGS FOG       33  33 100 CALM      30.04S VSB 1
TELLURIDE      PTSUNNY   38  24  57 SE16G22   29.97S
WOLF CREEK PAS CLOUDY    21  21 100 SW17G29   30.08S WCI   7
$$

COZ009-010-012-014-032>034-037-058>063-021600-
...CENTRAL COLORADO...

CITY           SKY/WX    TMP DP  RH WIND       PRES   REMARKS
ASPEN          CLOUDY    33  32  96 SW5       29.88F WCI  29
BUENA VISTA    CLOUDY    23  18  83 W3        29.99R HAZE
COPPER MTN     PTSUNNY   28  19  69 S20       29.96S WCI  15
BERTHOUD PASS  LGT SNOW  19  14  79 SW28      29.97S WCI   1
COTTONWOOD PAS FOG       28  27  93 CALM      29.96S VSB<1/4
GUNNISON       CLOUDY    27  21  80 CALM      30.01R
KREMMLING      CLOUDY    30  27  86 CALM      29.91S
LEADVILLE      CLOUDY    23  20  88 VRB3      29.94S
SALIDA         MOSUNNY   24  19  81 CALM      30.06S
SUNLIGHT       LGT SNOW  30  28  93 S3          N/A
WILKERSON PASS PTSUNNY   25  23  93 S10G20    29.99S WCI  15
$$

COZ069>075-021600-
...SAN LUIS VALLEY/SANGRE DE CRISTO MOUNTAINS...

CITY           SKY/WX    TMP DP  RH WIND       PRES   REMARKS
ALAMOSA        PTSUNNY   34  28  79 S17       30.01R WCI  23
LA VETA PASS   CLOUDY    28  23  80 S17G26    30.06S WCI  16
SAGUACHE       MOSUNNY   32  30  93 S6        30.02S WCI  26
$$

COZ035-036-038>040-021600-
...NORTHERN COLORADO FRONT RANGE...

CITY           SKY/WX    TMP DP  RH WIND       PRES   REMARKS
DENVER INTL AP FOG       19  16  88 W7        29.96F VSB 1   WCI  10
DMNS CITY PARK   N/A     21  13  73 SW1G7     29.97F
AURORA         PTSUNNY   15  13  90 SW1       29.95F FOG
FRONT RANGE AP MOSUNNY   19  16  86 SW7       29.97  FOG     WCI  10
ERIE MUNI ARPT CLOUDY    24  20  87 W6        29.98S FOG     WCI  17
BOULDER MUN AP CLOUDY    23  19  86 CALM      29.97S FOG
CENTENNIAL     MOSUNNY   18  16  92 CALM      29.93F FOG
BROOMFIELD     PTSUNNY   19  19 100 NW5       29.97F FOG     WCI  13
FORT COLLINS   PTSUNNY   23  19  86 N7        29.98F WCI  15
LONGMONT       CLOUDY    26  20  77 CALM      30.00S HAZE
$$

COZ041-046-047-076>085-087-088-021600-
...PIKES PEAK/PALMER DIVIDE AND SOUTHERN FOOTHILLS...

CITY           SKY/WX    TMP DP  RH WIND       PRES   REMARKS
COLO. SPRINGS  LGT SNOW  20  18  92 SW7       30.00F FOG     WCI  11
A. F. ACADEMY  CLOUDY    19  16  91 S8        29.97F WCI   8
ELLICOTT       NOT AVBL
FALCON         CLOUDY    19  18  96 SW9       29.97F FOG     WCI   8
FORT CARSON    PTSUNNY   19  18  93 S10       29.99F FOG     WCI   8
LIMON          CLOUDY    20  18  92 S20       30.01F WCI   4
MONUMENT HILL  MOSUNNY   19  16  86 S13       29.89F FOG     WCI   7
TRINIDAD       FOG       23  22  96 NE5       30.02S VSB<1/4 WCI  17
$$

COZ042>045-048>051-090-091-021600-
...NORTHEAST COLORADO...

CITY           SKY/WX    TMP DP  RH WIND       PRES   REMARKS
GREELEY ARPT   MOSUNNY   23  12  63 CALM      29.97F
AKRON          CLOUDY    25  19  78 S20G28    30.02F WCI  11
BURLINGTON     CLOUDY    24  20  84 S18       30.10F FOG     WCI  10
WRAY           SUNNY     29  22  75 SE15      30.12F WCI  18
STERLING       CLOUDY    30  21  69 S15       30.05F WCI  19
HOLYOKE        NOT AVBL
FORT MORGAN    MOSUNNY   28  21  74 SE15      30.01F WCI  16
$$

COZ086-089-092>099-021600-
...SOUTHEAST COLORADO...

CITY           SKY/WX    TMP DP  RH WIND       PRES   REMARKS
PUEBLO         CLOUDY    25  22  88 SE5       30.06F WCI  19
LA JUNTA       CLOUDY    30  24  78 SE8       30.09F WCI  22
LAMAR          CLOUDY    27  23  85 SE16      30.13S FOG     WCI  15
SPRINGFIELD      N/A     25  23  92 S23G35    30.10F WCI  10
$$



USA.gov is the U.S. government's official web portal to all federal, state and local government web resources and services.